INTELSAT 31 (IS-31) (41581 NORAD) Tracking and Keplerian Element Data

This shows tracking and keplerian element data for the satellite.

Feedback or suggestion? Click here.




ElementValue
Catalog41581
NameINTELSAT 31 (IS-31)
Epoch Orbit773
Epoch Day201.43579024
Epoch Year2018
RAAN285.5069
Inclination0.016
Eccentricity0.0001517
Argument of Perigee308.6132
Mean Anonmoly125.8488
Mean Motion1.00272051
Decay Rate-1.67E-06
L11 41581U 16035A 18201.43579024 -.00000167 00000-0 00000+0 0 9994
L22 41581 0.0160 285.5069 0001517 308.6132 125.8488 1.00272051 7731

Live tracking and technical data element details for INTELSAT 31 (IS-31) (NORAD 41581). INTELSAT 31 (IS-31) can be tracked NOW for your location showing map with azimuth and elevation plus other details from your city location.

Track the satellite on the map from your city or location and see movement details for azimuth, elevation, latitude, longitude, range, height, and movement on the map or in text.







IsCatalogInMostPopularTable: catalog: 41581, numindb: 69
Update: records affected: 1



GetName: 41581 INTELSAT 31 (IS-31)

Hit Count: updated at: Sat, 21 Jul 2018 07:51:56 GMT